Regional Weather Roundup
Issued by NWS

Home | Current Version | Previous Version | Text Only | Print | Product List | Glossary Off
Versions: 1 2 3 4 5 6 7 8 9 10 11 12 13 14 15 16 17 18 19 20 21 22 23 24 25 26 27 28 29 30 31 32 33 34 35 36 37 38 39 40 41 42 43 44 45 46 47 48 49 50

000
ASUS44 KMEG 041700
RWRTN
TENNESSEE HOURLY STATE WEATHER ROUNDUP
NATIONAL WEATHER SERVICE MEMPHIS TN
1100 AM CST WED MAR 04 2015

TNZ002-004-019-021-049-052-054-088>092-041800-
WEST TENNESSEE

CITY           SKY/WX    TMP DP  RH WIND       PRES   REMARKS
MEMPHIS INTL   LGT RAIN  42  39  89 N21G26    29.95R VSB 3/4
NWS MEMPHIS      N/A     43 N/A N/A MISG        N/A
JACKSON        CLOUDY    46  43  89 N18G24    29.95R
DYERSBURG      CLOUDY    37  25  60 N20G26    30.03R WCI  27
UNION CITY     CLOUDY    34  34 100 N14       30.04R WCI  24
PARIS          CLOUDY    36  36 100 N13       30.00S WCI  27
LEXINGTON      CLOUDY    46  45  93 N15       29.92R
SAVANNAH       CLOUDY    54  54 100 N8        29.89S
$$

TNZ008-025-027-028-033-062-065-066-041800-
NORTH MIDDLE TENNESSEE

CITY           SKY/WX    TMP DP  RH WIND       PRES   REMARKS
NASHVILLE      LGT RAIN  50  48  93 N14G22    29.94S FOG
CLARKSVILLE    LGT RAIN  39  38  96 N15       30.00S FOG     WCI  31
COOKEVILLE     CLOUDY    52  52 100 VRB5      29.89S
CROSSVILLE     CLOUDY    62  58  86 S10       29.90F
$$

TNZ061-075-076-078-094-096-097-041800-
SOUTH MIDDLE TENNESSEE

CITY           SKY/WX    TMP DP  RH WIND       PRES   REMARKS
FAYETTEVILLE   CLOUDY    64  63  94 SW14        N/A
TULLAHOMA      CLOUDY    66  61  82 SW17      29.91F
WINCHESTER     CLOUDY    70  61  73 SW18      29.92F
COLUMBIA       CLOUDY   N/A N/A N/A N7        29.90R
SHELBYVILLE    CLOUDY    59  57  94 N8        29.91R
$$

TNZ017-018-042-046-047-041800-
NORTHEAST TENNESSEE

CITY           SKY/WX    TMP DP  RH WIND       PRES   REMARKS
TRI CITIES     CLOUDY    69  57  65 SW18G24   29.87F
ELIZABETHTON   PTSUNNY   64  57  77 SW3       29.89F
$$

TNZ012-013-036-069-073-074-041800-
CENTRAL EAST TENNESSEE

CITY           SKY/WX    TMP DP  RH WIND       PRES   REMARKS
KNOXVILLE      CLOUDY    68  59  73 SW26G33   29.89F
OAK RIDGE      CLOUDY    66  59  78 SW12G20   29.90F
GATLINBURG     MOSUNNY   73  54  49 SW22      29.87F
$$

TNZ083-085-099-041800-
SOUTHEAST TENNESSEE

CITY           SKY/WX    TMP DP  RH WIND       PRES   REMARKS
CHATTANOOGA    CLOUDY    68  61  78 S14G20    29.96R
$$

SKY/WX REPORTED AS FAIR MEANS FEW OR NO CLOUDS BELOW
12 THOUSAND FEET.



USA.gov is the U.S. government's official web portal to all federal, state and local government web resources and services.